User: anonymous   Login
Location: Adrasan
(36.3319°N, 30.4314°E)
Time: 05:41:22
(UTC+00:00)
Language:

SKYMED 2 - Orbit

View from above orbital plane
View from above orbital plane
View from above satellite
View from above satellite

Ground track
Ground track

The orbit data is extracted from the following two-line orbital elements,

1 32376U 07059A   24108.81528871  .00000101  00000-0  19232-4 0  9990
2 32376  97.8868 292.8448 0001465  89.2297 270.9083 14.82157145885007
Epoch (UTC): 17 April 2024 19:34:00
Eccentricity: 0.0001465
inclination: 97.8868°
perigee height: 621 km
apogee height: 623 km
right ascension of ascending node: 292.8448°
argument of perigee: 89.2297°
revolutions per day: 14.82157145
mean anomaly at epoch: 270.9083°
orbit number at epoch: 88500

The dashed part of the orbit path shows where the satellite is in the earth's shadow,  

DLR